Starlink 5159

operational
NORAD ID: 53974 Int'l Des: 2022-125 Owner: SPXS Country: US Constellation: starlink
LEOCIRCULAR

About Starlink 5159

Description loading...

Live Position

Loading 3D Globe...

Upcoming Passes

Altitude History

Altitude vs Time

uPlot chart will show altitude changes over time

Two-Line Element Set

1 53974U 22125L 26074.55250655 -.00002639 00000-0 -14780-3 0 9997
2 53974 53.2156 177.4046 0000954 82.6678 277.4423 15.08841316190495
Epoch: Mar 15, 2026 • Age: 9 hours

Current Status

Altitude 539.9 km
Velocity 7.60 km/s
Sub-Earth Point 18.88°N, 160.93°W
Launch Date Oct 5, 2022
Age 3.4 years
Type internet

Technical Details

Classification Payload
Mass 305.00 kg
Dry Mass 290.00 kg
Total Mass 305.00 kg
Length 0.20 m
Diameter 2.80 m
Span 9.00 m
Shape Box + pan
Manufacturer SPXS
Bus Type Starlink
Phase Status In Orbit
Owner/State SPXS/US

Large Constellations

Loading constellations...